SV1BYK-2 Weather Reports


time (UTC)temp
F
wind
direction
speed
knots
gust
knots
rain 1hr
in
rain 24hr
in
rain mn
in
humidity
%
barometer
mb
20260507181114 69 227 0.9 3.5 0.00 0.00 0.00 44 1012.0
20260507180004 69 193 1.7 3.5 0.00 0.00 0.00 44 1012.2
20260507175618 69 222 1.7 3.5 0.00 0.00 0.00 44 1012.1
20260507174715 69 270 1.7 5.2 0.00 0.00 0.00 46 1011.8
20260507173817 69 239 1.7 7.8 0.00 0.00 0.00 45 1012.0
20260507172915 69 261 0.9 7.8 0.00 0.00 0.00 45 1012.0
20260507172017 70 256 1.7 7.8 0.00 0.00 0.00 44 1012.1
20260507171114 71 256 3.5 7.0 0.00 0.00 0.00 42 1011.9
20260507170004 71 238 1.7 6.1 0.00 0.00 0.00 39 1011.7
20260507165613 71 230 2.6 6.1 0.00 0.00 0.00 39 1011.7
20260507164715 72 190 1.7 5.2 0.00 0.00 0.00 38 1011.3
20260507163603 71 204 1.7 6.1 0.00 0.00 0.00 41 1011.2
20260507162704 72 199 1.7 6.1 0.00 0.00 0.00 40 1011.4
20260507162018 72 156 1.7 3.5 0.00 0.00 0.00 43 1011.4
20260507161115 72 106 0.0 6.1 0.00 0.00 0.00 39 1011.6
20260507160004 72 131 0.9 6.1 0.00 0.00 0.00 39 1011.4
20260507155403 72 146 1.7 6.1 0.00 0.00 0.00 39 1011.6
20260507154504 72 244 1.7 5.2 0.00 0.00 0.00 43 1011.6
20260507153813 72 252 2.6 6.1 0.00 0.00 0.00 41 1011.8
20260507152916 72 263 1.7 7.0 0.00 0.00 0.00 45 1011.8
20260507151804 73 267 1.7 7.8 0.00 0.00 0.00 44 1012.2
20260507151115 73 234 5.2 7.8 0.00 0.00 0.00 44 1011.8
20260507150218 74 153 2.6 5.2 0.00 0.00 0.00 37 1012.0
20260507145614 74 235 1.7 7.8 0.00 0.00 0.00 35 1011.9
20260507144717 73 265 3.5 7.8 0.00 0.00 0.00 37 1011.9
20260507143814 74 265 4.3 9.6 0.00 0.00 0.00 37 1012.1
20260507142916 74 228 2.6 9.6 0.00 0.00 0.00 34 1012.0
20260507142014 75 145 3.5 7.8 0.00 0.00 0.00 31 1011.8
20260507141116 74 242 3.5 9.6 0.00 0.00 0.00 30 1011.8
20260507140213 76 237 2.6 9.6 0.00 0.00 0.00 31 1011.6
20260507135403 76 235 3.5 11.3 0.00 0.00 0.00 32 1011.6
20260507134717 77 210 2.6 9.6 0.00 0.00 0.00 31 1011.4
20260507133815 76 215 3.5 11.3 0.00 0.00 0.00 31 1011.3
20260507132917 76 228 3.5 9.6 0.00 0.00 0.00 32 1011.4
20260507131804 76 257 3.5 7.8 0.00 0.00 0.00 32 1011.4
20260507131117 76 247 1.7 7.8 0.00 0.00 0.00 33 1011.3
20260507130214 74 257 2.6 9.6 0.00 0.00 0.00 36 1011.5
20260507125616 73 258 6.1 9.6 0.00 0.00 0.00 45 1011.7
20260507124503 72 245 3.5 11.3 0.00 0.00 0.00 46 1011.8
20260507123603 72 256 2.6 9.6 0.00 0.00 0.00 45 1012.0
20260507122913 73 261 5.2 7.8 0.00 0.00 0.00 46 1011.9
20260507121804 73 245 3.5 7.8 0.00 0.00 0.00 45 1012.1
20260507121117 74 250 1.7 9.6 0.00 0.00 0.00 42 1012.0
20260507120004 73 226 1.7 7.0 0.00 0.00 0.00 48 1012.0
20260507115616 74 188 1.7 7.0 0.00 0.00 0.00 51 1011.9
20260507114503 74 223 1.7 13.0 0.00 0.00 0.00 53 1012.1
20260507113816 74 157 2.6 7.8 0.00 0.00 0.00 52 1012.2
20260507112703 73 231 4.3 11.3 0.00 0.00 0.00 50 1012.3
20260507111804 73 229 3.5 11.3 0.00 0.00 0.00 49 1012.5
20260507111113 73 239 5.2 9.6 0.00 0.00 0.00 50 1012.5
20260507110004 72 233 2.6 9.6 0.00 0.00 0.00 52 1012.3
20260507105403 73 129 3.5 9.6 0.00 0.00 0.00 50 1012.2
20260507104714 72 238 3.5 14.8 0.00 0.00 0.00 53 1012.2
20260507103817 73 261 2.6 11.3 0.00 0.00 0.00 58 1012.3
20260507102914 73 198 3.5 9.6 0.00 0.00 0.00 58 1012.0
20260507101804 74 229 2.6 7.8 0.00 0.00 0.00 60 1011.7
20260507101114 74 127 3.5 6.1 0.00 0.00 0.00 60 1011.9
20260507100004 74 230 4.3 7.8 0.00 0.00 0.00 56 1011.9
20260507095403 73 227 2.6 7.8 0.00 0.00 0.00 59 1012.0
20260507094715 74 219 2.6 7.0 0.00 0.00 0.00 54 1011.9
20260507093603 74 122 3.5 7.0 0.00 0.00 0.00 54 1012.0
20260507092703 74 204 1.7 7.0 0.00 0.00 0.00 51 1012.1
20260507091804 75 227 1.7 7.8 0.00 0.00 0.00 46 1011.8
20260507091114 74 156 2.6 7.8 0.00 0.00 0.00 47 1012.0
20260507090217 74 127 1.7 5.2 0.00 0.00 0.00 46 1011.8
20260507085403 74 114 1.7 5.2 0.00 0.00 0.00 44 1011.9
20260507084503 74 124 1.7 6.1 0.00 0.00 0.00 45 1011.8
20260507083813 74 149 3.5 6.1 0.00 0.00 0.00 44 1011.9
20260507082704 74 198 1.7 3.5 0.00 0.00 0.00 44 1011.8
20260507081804 74 138 1.7 3.5 0.00 0.00 0.00 42 1011.7
20260507080903 74 206 1.7 5.2 0.00 0.00 0.00 45 1011.7
20260507080004 73 184 1.7 5.2 0.00 0.00 0.00 43 1011.7
20260507075614 72 125 1.7 5.2 0.00 0.00 0.00 44 1011.8
20260507074503 72 246 1.7 7.0 0.00 0.00 0.00 45 1011.6
20260507073813 71 243 3.5 7.0 0.00 0.00 0.00 46 1011.6
20260507072704 72 194 0.9 3.5 0.00 0.00 0.00 45 1011.5
20260507072013 72 152 1.7 3.5 0.00 0.00 0.00 47 1011.5
20260507071115 72 174 1.7 5.2 0.00 0.00 0.00 49 1011.5
20260507070213 71 128 1.7 5.2 0.00 0.00 0.00 49 1011.6
20260507065403 71 213 1.7 5.2 0.00 0.00 0.00 50 1011.6
20260507064717 72 140 1.7 3.5 0.00 0.00 0.00 50 1011.9
20260507063814 72 169 0.9 5.2 0.00 0.00 0.00 49 1011.6
20260507062704 71 101 0.9 3.5 0.00 0.00 0.00 51 1011.8
20260507061803 71 102 1.7 3.5 0.00 0.00 0.00 50 1011.4
20260507061116 71 91 1.7 1.7 0.00 0.00 0.00 49 1011.5
20260507060213 71 359 0.0 1.7 0.00 0.00 0.00 51 1011.5
20260507055403 71 315 0.0 1.7 0.00 0.00 0.00 50 1011.1
20260507054717 70 315 0.0 1.7 0.00 0.00 0.00 52 1011.2
20260507053815 68 315 0.9 1.7 0.00 0.00 0.00 53 1011.2
20260507052917 67 292 0.0 1.7 0.00 0.00 0.00 52 1010.9
20260507051803 66 292 0.9 1.7 0.00 0.00 0.00 53 1010.9
20260507051117 65 308 0.0 1.7 0.00 0.00 0.00 55 1010.8
20260507050214 64 320 0.9 1.7 0.00 0.00 0.00 56 1010.8
20260507045403 63 323 0.9 3.5 0.00 0.00 0.00 57 1010.8
20260507044503 62 319 0.0 1.7 0.00 0.00 0.00 57 1010.8
20260507043604 62 315 0.9 1.7 0.00 0.00 0.00 58 1010.8
20260507042704 61 315 0.0 1.7 0.00 0.00 0.00 60 1010.7
20260507041803 61 315 0.0 1.7 0.00 0.00 0.00 60 1010.7
20260507040903 60 318 0.0 1.7 0.00 0.00 0.00 61 1010.8
20260507040215 60 321 0.9 1.7 0.00 0.00 0.00 61 1010.8
20260507035616 60 327 0.0 1.7 0.00 0.00 0.00 61 1010.8
20260507034503 60 315 0.0 1.7 0.00 0.00 0.00 61 1011.0
20260507033604 60 315 0.9 1.7 0.00 0.00 0.00 60 1010.7
20260507032913 60 315 0.0 1.7 0.00 0.00 0.00 60 1010.6
20260507032016 60 315 0.0 1.7 0.00 0.00 0.00 60 1010.7
20260507031113 60 325 0.9 1.7 0.00 0.00 0.00 60 1010.9
20260507030004 60 337 0.0 1.7 0.00 0.00 0.00 61 1010.5
20260507025617 60 337 0.0 1.7 0.00 0.00 0.00 60 1010.6
20260507024503 60 337 0.0 1.7 0.00 0.00 0.00 60 1010.7
20260507023604 60 337 0.0 1.7 0.00 0.00 0.00 60 1010.4
20260507022914 60 0 0.0 0.0 0.00 0.00 0.00 60 1010.7
20260507022016 60 337 0.0 1.7 0.00 0.00 0.00 59 1010.5
20260507020903 60 0 0.0 0.0 0.00 0.00 0.00 59 1010.6
20260507020004 60 337 0.0 1.7 0.00 0.00 0.00 59 1010.2
20260507015618 60 337 0.0 1.7 0.00 0.00 0.00 59 1010.3
20260507014715 61 332 0.0 1.7 0.00 0.00 0.00 58 1010.2
20260507013817 61 315 0.9 1.7 0.00 0.00 0.00 57 1010.3
20260507012704 61 315 0.0 1.7 0.00 0.00 0.00 57 1010.0
20260507011803 61 315 0.0 1.7 0.00 0.00 0.00 57 1010.1
20260507010004 62 315 0.0 1.7 0.00 0.00 0.00 56 1009.8
20260507005403 62 315 0.0 1.7 0.00 0.00 0.00 56 1009.8
20260507004503 62 315 0.0 1.7 0.00 0.00 0.00 55 1009.9
20260507003818 62 310 0.9 3.5 0.00 0.00 0.00 55 1009.6
20260507002915 63 292 0.9 5.2 0.00 0.00 0.00 55 1009.7
20260507002018 62 292 0.9 5.2 0.00 0.00 0.00 55 1009.8
20260507000903 62 292 0.0 1.7 0.00 0.00 0.00 56 1009.9
20260507000004 62 292 0.0 1.7 0.00 0.00 0.00 57 1010.0
20260506235403 62 292 0.0 1.7 0.00 0.00 0.00 57 1009.6
20260506234716 62 0 0.0 0.0 0.00 0.00 0.00 56 1009.9
20260506233604 63 292 0.0 1.7 0.00 0.00 0.00 55 1010.3
20260506232916 63 0 0.0 0.0 0.00 0.00 0.00 56 1010.3
20260506231803 63 292 0.0 1.7 0.00 0.00 0.00 55 1010.5
20260506230903 63 292 0.0 1.7 0.00 0.00 0.00 55 1010.5
20260506230213 63 292 0.0 1.7 0.00 0.00 0.00 55 1010.2
20260506225614 64 292 0.0 1.7 0.00 0.00 0.00 54 1010.5
20260506224717 64 292 0.0 1.7 0.00 0.00 0.00 54 1010.6
20260506223814 64 292 0.9 1.7 0.00 0.00 0.00 54 1010.7
20260506222704 65 0 0.0 0.0 0.00 0.00 0.00 54 1010.4
20260506222014 65 292 0.0 1.7 0.00 0.00 0.00 53 1010.5
20260506221116 66 292 0.9 1.7 0.00 0.00 0.00 52 1010.6
20260506220213 66 292 0.9 1.7 0.00 0.00 0.00 54 1010.5
20260506215403 66 0 0.0 0.0 0.00 0.00 0.00 54 1010.7
20260506214504 66 0 0.0 0.0 0.00 0.00 0.00 53 1010.7
20260506213604 66 0 0.0 0.0 0.00 0.00 0.00 52 1010.8
20260506212703 66 292 0.0 1.7 0.00 0.00 0.00 52 1010.8
20260506211803 67 292 0.0 1.7 0.00 0.00 0.00 51 1010.7
20260506211117 66 292 0.0 1.7 0.00 0.00 0.00 51 1010.8
20260506210219 66 0 0.0 0.0 0.00 0.00 0.00 51 1010.8
20260506205403 66 292 0.0 1.7 0.00 0.00 0.00 50 1011.0
20260506204504 67 292 0.0 1.7 0.00 0.00 0.00 50 1011.0
20260506203604 67 286 0.9 3.5 0.00 0.00 0.00 49 1010.9
20260506202918 67 285 1.7 3.5 0.00 0.00 0.00 49 1011.1
20260506201804 67 262 1.7 3.5 0.00 0.00 0.00 48 1010.9
20260506200903 68 264 1.7 3.5 0.00 0.00 0.00 47 1011.0
20260506200004 68 282 1.7 3.5 0.00 0.00 0.00 45 1011.0
20260506195616 68 283 2.6 3.5 0.00 0.00 0.00 45 1010.7
20260506194504 69 270 3.5 5.2 0.00 0.00 0.00 43 1010.6
20260506193603 69 267 1.7 3.5 0.00 0.00 0.00 42 1010.5
20260506192703 69 277 2.6 3.5 0.00 0.00 0.00 42 1010.5
20260506191803 70 283 2.6 3.5 0.00 0.00 0.00 42 1010.5
20260506191113 70 272 2.6 3.5 0.00 0.00 0.00 42 1010.2
20260506190004 70 292 1.7 3.5 0.00 0.00 0.00 42 1010.2
20260506185617 70 292 1.7 3.5 0.00 0.00 0.00 42 1010.1
20260506184714 70 292 1.7 3.5 0.00 0.00 0.00 42 1010.2
20260506183604 70 292 1.7 3.5 0.00 0.00 0.00 42 1009.9
20260506182703 70 290 2.6 3.5 0.00 0.00 0.00 42 1009.8
20260506182016 70 280 1.7 3.5 0.00 0.00 0.00 42 1009.8